This is the latest recevied weather packets stored in our database for station/object DL1MMS-10. If no packets are shown the sender has not sent any weather packets the latest 10 day(s).
| Time | Temp. | Humidity | Pressure | Rain* | Wind** | Luminosity | Snow |
|---|---|---|---|---|---|---|---|
| 1777830931 | 21.67° C | 32% | 1014.2 hPa | 0 mm | - | - | - |
| 1777830631 | 22.22° C | 31% | 1014.2 hPa | 0 mm | - | - | - |
| 1777830330 | 22.22° C | 30% | 1014.1 hPa | 0 mm | - | - | - |
| 1777830030 | 22.78° C | 30% | 1014.1 hPa | 0 mm | - | - | - |
| 1777829730 | 23.33° C | 29% | 1014 hPa | 0 mm | - | - | - |
| 1777829431 | 23.89° C | 29% | 1014.2 hPa | 0 mm | - | - | - |
| 1777829129 | 23.89° C | 28% | 1014.3 hPa | 0 mm | - | - | - |
| 1777828829 | 24.44° C | 28% | 1014.2 hPa | 0 mm | - | - | - |
| 1777828529 | 25° C | 27% | 1014.3 hPa | 0 mm | - | - | - |
| 1777828228 | 25° C | 26% | 1014.3 hPa | 0 mm | - | - | - |
| 1777827928 | 25.56° C | 25% | 1014.3 hPa | 0 mm | - | - | - |
| 1777827628 | 26.67° C | 24% | 1014.2 hPa | 0 mm | - | - | - |
| 1777827328 | 27.22° C | 23% | 1014.3 hPa | 0 mm | - | - | - |
| 1777827027 | 27.78° C | 22% | 1014.2 hPa | 0 mm | - | - | - |
| 1777826727 | 29.44° C | 21% | 1014.2 hPa | 0 mm | - | - | - |
| 1777826427 | 31.11° C | 20% | 1014.3 hPa | 0 mm | - | - | - |
| 1777826126 | 32.78° C | 20% | 1014.3 hPa | 0 mm | - | - | - |
| 1777825826 | 32.78° C | 21% | 1014.3 hPa | 0 mm | - | - | - |
| 1777825526 | 31.67° C | 22% | 1014.1 hPa | 0 mm | - | - | - |
| 1777825225 | 30.56° C | 22% | 1014.1 hPa | 0 mm | - | - | - |
| 1777824925 | 29.44° C | 23% | 1014.1 hPa | 0 mm | - | - | - |
| 1777824625 | 29.44° C | 23% | 1014.1 hPa | 0 mm | - | - | - |
| 1777824325 | 29.44° C | 23% | 1014.2 hPa | 0 mm | - | - | - |
| 1777824024 | 30.56° C | 22% | 1014.2 hPa | 0 mm | - | - | - |
| 1777823724 | 31.11° C | 22% | 1014.1 hPa | 0 mm | - | - | - |
* Rain latest hour (hover to see other rain measurements)
** Current wind speed in m/s (hover to see current wind gust speed)